Flag Weather past 2 weeks in Sierra Vista, Arizona, U.S.A.

Now
48 °F

Clear.


Feels Like: 48 °F
Forecast: 36 / 67 °F
Wind: No wind

Location: Fort Huachuca

Current Time: Nov 25, 2014 at 7:00:34 PM

Latest Report: Nov 25, 2014 at 5:55 PM


Visibility: 10 mi

Pressure: 30.32 "Hg

Humidity: 12%

Dew point: -2 °F

Location of Sierra VistaLocation

Historic Weather in Sierra Vista — Graph

°F

Sierra Vista temperature yesterday

Maximum temperature yesterday: 59 °F (at 12:55 PM)
Minimum temperature yesterday: 32 °F (at 6:55 AM)
Average temperature yesterday: 44 °F

Past Weeks' High & Low Weather Summary

 TemperatureHumidityPressure
High73 °F (Nov 12, 12:55 PM)93% (Nov 15, 5:56 AM)30.46 "Hg (Nov 15, 5:56 AM)
Low32 °F (Nov 24, 6:55 AM)5% (Nov 24, 12:55 PM)29.83 "Hg (Nov 10, 6:55 PM)
Average53 °F39%30.04 "Hg
* Reported Nov 10 5:55 PM — Nov 25 5:55 PM, Sierra Vista, Weather by CustomWeather, © 2014

Note: Actual official high and low records may vary slightly from our data, if they occured in-between our weather recording intervals... More about our weather records

Advertising

Sierra Vista weather history for previous 24 hours

 ConditionsComfort  
Time TempWeatherWind HumidityBarometerVisibility
5:55 PM
Nov 25
48 °FClear.No wind12%30.32 "Hg10 mi
4:55 PM55 °FSunny.5 mph7%30.30 "Hg10 mi
3:55 PM61 °FSunny.No wind5%30.29 "Hg10 mi
2:55 PM57 °FSunny.No wind7%30.30 "Hg10 mi
1:55 PM57 °FSunny.No wind9%30.30 "Hg10 mi
12:55 PM55 °FSunny.3 mph9%30.32 "Hg10 mi
11:55 AM52 °FSunny.5 mph10%30.37 "Hg10 mi
10:55 AM48 °FSunny.7 mph12%30.42 "Hg10 mi
9:55 AM46 °FSunny.8 mph15%30.44 "Hg10 mi
8:55 AM43 °FSunny.7 mph17%30.46 "Hg10 mi
7:55 AM39 °FSunny.6 mph20%30.43 "Hg10 mi
6:55 AM34 °FClear.10 mph25%30.42 "Hg10 mi
5:55 AM34 °FClear.10 mph25%30.41 "Hg10 mi
4:56 AM34 °FClear.9 mph24%30.37 "Hg10 mi
3:56 AM34 °FClear.6 mph23%30.36 "Hg10 mi
2:56 AM35 °FClear.7 mph22%30.35 "Hg10 mi
1:56 AM38 °FClear.No wind20%30.32 "Hg10 mi
12:56 AM38 °FClear.6 mph22%30.31 "Hg10 mi
11:56 PM
Nov 24
41 °FClear.No wind18%30.31 "Hg10 mi
10:55 PM37 °FClear.No wind22%30.31 "Hg10 mi
9:55 PM37 °FClear.5 mph22%30.29 "Hg10 mi
8:55 PM37 °FClear.3 mph22%30.28 "Hg10 mi
7:55 PM43 °FClear.12 mph16%30.24 "Hg10 mi
Weather by CustomWeather, © 2014

See weather overviewHow to use our weather pages